Regional Weather Roundup
Issued by NWS

Home | Current Version | Previous Version | Graphics & Text | Print | Product List | Glossary Off
Versions: 1 2 3 4 5 6 7 8 9 10 11 12 13 14 15 16 17 18 19 20 21 22 23 24 25 26 27 28 29 30 31 32 33 34 35 36 37 38 39 40 41 42 43 44 45 46 47 48 49 50

000
ASUS43 KFSD 230510
RWRSD

WEATHER ROUNDUP FOR SOUTH DAKOTA
NATIONAL WEATHER SERVICE SIOUX FALLS SD
1100 PM CST WED NOV 22 2017

NOTE: "FAIR" INDICATES FEW OR NO CLOUDS BELOW 12,000 FEET WITH NO
SIGNIFICANT WEATHER AND/OR OBSTRUCTIONS TO VISIBILITY.


SDZ001>005-009-010-012>017-230600-
NORTHWEST AND NORTH CENTRAL SOUTH DAKOTA

CITY           SKY/WX    TMP DP  RH WIND       PRES   REMARKS
BUFFALO          N/A     46  38  73 SW7       29.96F
FAITH            N/A     45  38  76 W7        30.02R
MOBRIDGE       CLEAR     34  30  85 CALM      29.97R
$$

SDZ012>016-024>037-041>051-057-063-072>074-230600-
SOUTHWEST AND SOUTH CENTRAL SOUTH DAKOTA

CITY           SKY/WX    TMP DP  RH WIND       PRES   REMARKS
RAPID CTY ARPT CLOUDY    45  35  68 W3        30.08S
PIERRE         CLEAR     42  38  85 NW7       30.00R
CUSTER         CLEAR     48  34  58 NW6       30.17S
ELLSWORTH AFB  CLOUDY    43  37  78 W7        30.07S
PHILIP         CLEAR     44  39  82 W12       30.04R
PINE RIDGE     PTCLDY    43  35  73 CALM      30.12R
SPEARFISH      FAIR      54  39  58 W10       30.10S
WINNER         FAIR      49  38  65 W9        30.01S
$$

SDZ004>011-016>023-039-040-230600-
NORTHEAST SOUTH DAKOTA

CITY           SKY/WX    TMP DP  RH WIND       PRES   REMARKS
ABERDEEN       CLOUDY    27  23  85 NW8       29.99R WCI  19
WATERTOWN      CLOUDY    24  19  81 CALM      29.91S
BROOKINGS      CLOUDY    24  20  84 CALM      29.93R
SISSETON         N/A     34  25  69 NW14      29.92R WCI  25
$$

SDZ017-020-022-023-036>040-048>070-230600-
SOUTHEAST SOUTH DAKOTA

CITY           SKY/WX    TMP DP  RH WIND       PRES   REMARKS
SIOUX FALLS    CLOUDY    31  21  66 SW3       29.93R
HURON          CLOUDY    29  25  85 NW8       29.97R WCI  21
CHAMBERLAIN    CLEAR     49  38  67 NW7       29.99R
MITCHELL       CLEAR     43  33  68 NW14      29.96R
YANKTON        CLEAR     40  29  64 W5        29.95R
$$

ABBREVIATIONS USED IN REMARKS
   TC - TEMPERATURE IN CELSIUS
  WCI - WIND CHILL INDEX
   HX - HEAT INDEX
  VSB - VISIBILITY





USA.gov is the U.S. government's official web portal to all federal, state and local government web resources and services.